Location: Baia de Cri?
(46.1667°N, 22.7167°E)
Time: 02:48:22
(UTC+00:00)

Envisat - Visible Passes

Search period start: 09 March 2026 00:00
Search period end: 19 March 2026 00:00
Orbit: 761 x 763 km, 98.4° (Epoch: 8 March)

Date Brightness Start Highest point End Pass type
(mag) Time Alt. Az. Time Alt. Az. Time Alt. Az.
9 Mar 4.7 01:35:06 10° N 01:37:13 25° N 01:37:13 25° N visible
9 Mar 5.2 03:17:07 10° NW 03:17:21 10° NW 03:17:21 10° NW visible
10 Mar 5.2 00:57:19 10° NNE 00:59:06 22° NNE 00:59:06 22° NNE visible
10 Mar 4.8 02:37:07 10° NNW 02:39:14 18° NW 02:39:14 18° NW visible
11 Mar 5.7 00:20:01 10° NE 00:20:58 14° NE 00:20:58 14° NE visible
11 Mar 4.5 01:58:38 10° N 02:01:06 26° NNW 02:01:06 26° NNW visible
12 Mar 4.7 01:20:36 10° NNE 01:22:58 28° NNE 01:22:58 28° NNE visible
12 Mar 4.9 03:01:22 10° NNW 03:03:07 13° NW 03:03:07 13° NW visible
13 Mar 5.2 00:42:58 10° NNE 00:44:51 22° NE 00:44:51 22° NE visible
13 Mar 4.5 02:22:20 10° N 02:24:59 23° NW 02:24:59 23° NW visible
14 Mar 5.8 00:05:58 10° NE 00:06:44 13° NE 00:06:44 13° NE visible
14 Mar 4.3 01:44:02 10° N 01:46:52 32° N 01:46:52 32° N visible
15 Mar 4.6 01:06:10 10° NNE 01:08:45 30° NNE 01:08:45 30° NNE visible
15 Mar 4.7 02:46:17 10° NNW 02:48:52 17° NW 02:48:52 17° NW visible
16 Mar 5.3 00:28:43 10° NNE 00:30:37 20° NE 00:30:37 20° NE visible
16 Mar 4.2 02:07:37 10° N 02:10:45 29° NNW 02:10:45 29° NNW visible
16 Mar 5.9 23:52:08 10° NE 23:52:29 11° ENE 23:52:29 11° ENE visible
17 Mar 4.1 01:29:29 10° N 01:32:37 38° N 01:32:37 38° N visible
17 Mar 5.0 03:10:52 10° NW 03:12:36 12° NW 03:12:45 12° WNW visible
18 Mar 4.7 00:51:46 10° NNE 00:54:29 30° NE 00:54:29 30° NE visible
18 Mar 4.4 02:31:24 10° NNW 02:34:38 22° NW 02:34:38 22° NW visible
